FIN8DP EFOU-EFHK

Flight info

Callsign FIN8DP
Flight time 0h 52m
Altitude 37000
Route MIKNU Y86 LUSEP
Aircraft E190/M-SDE3GILORVW/S

Departure

Time 2026-05-04 23:31
Airport Oulu Airport (EFOU)

Arrival

Time 2026-05-05 00:23
Airport Helsinki Vantaa Airport (EFHK)
Time Latitude Longitude Altitude Speed Heading
2026-05-04 23:08 64.92757 25.37543 39 ft 0 kts 30°
2026-05-04 23:21 64.92755 25.37541 39 ft 2 kts 30°
2026-05-04 23:21 64.92742 25.37523 40 ft 2 kts 31°
2026-05-04 23:21 64.92730 25.37505 40 ft 2 kts 31°
2026-05-04 23:21 64.92717 25.37487 40 ft 1 kts 30°
2026-05-04 23:22 64.92709 25.37475 40 ft 1 kts 18°
2026-05-04 23:22 64.92696 25.37474 40 ft 2 kts 345°
2026-05-04 23:22 64.92683 25.37486 40 ft 1 kts 321°
2026-05-04 23:22 64.92677 25.37501 40 ft 0 kts 303°
2026-05-04 23:23 64.92673 25.37517 40 ft 0 kts 300°
2026-05-04 23:25 64.92673 25.37514 40 ft 1 kts 300°
2026-05-04 23:26 64.92687 25.37463 40 ft 6 kts 301°
2026-05-04 23:26 64.92722 25.37325 40 ft 12 kts 301°
2026-05-04 23:26 64.92774 25.37122 40 ft 15 kts 300°
2026-05-04 23:26 64.92831 25.36901 40 ft 16 kts 301°
2026-05-04 23:27 64.92890 25.36667 40 ft 16 kts 300°
2026-05-04 23:27 64.92951 25.36429 40 ft 17 kts 300°
2026-05-04 23:27 64.93014 25.36179 40 ft 18 kts 301°
2026-05-04 23:27 64.93080 25.35922 40 ft 18 kts 300°
2026-05-04 23:28 64.93147 25.35655 40 ft 19 kts 301°
2026-05-04 23:28 64.93218 25.35379 40 ft 19 kts 301°
2026-05-04 23:28 64.93290 25.35101 40 ft 20 kts 301°
2026-05-04 23:28 64.93360 25.34824 40 ft 18 kts 300°
2026-05-04 23:29 64.93426 25.34563 41 ft 18 kts 301°
2026-05-04 23:29 64.93491 25.34311 41 ft 11 kts 300°
2026-05-04 23:29 64.93516 25.34181 43 ft 7 kts 272°
2026-05-04 23:29 64.93489 25.34076 44 ft 9 kts 205°
2026-05-04 23:30 64.93410 25.33987 46 ft 14 kts 193°
2026-05-04 23:30 64.93340 25.34149 44 ft 17 kts 120°
2026-05-04 23:30 64.93141 25.34921 44 ft 96 kts 121°
2026-05-04 23:30 64.92684 25.36710 117 ft 152 kts 122°
2026-05-04 23:31 64.92105 25.39000 597 ft 178 kts 124°
2026-05-04 23:31 64.91399 25.41682 1061 ft 208 kts 123°
2026-05-04 23:31 64.90617 25.44758 1798 ft 230 kts 124°
2026-05-04 23:31 64.89709 25.47807 2934 ft 228 kts 144°
2026-05-04 23:32 64.88325 25.49047 3995 ft 218 kts 183°
2026-05-04 23:32 64.86799 25.48983 4877 ft 232 kts 188°
2026-05-04 23:32 64.85087 25.48815 5584 ft 259 kts 187°
2026-05-04 23:32 64.83273 25.48616 6619 ft 271 kts 187°
2026-05-04 23:33 64.81409 25.48396 7856 ft 274 kts 187°
2026-05-04 23:33 64.79542 25.48166 9149 ft 273 kts 187°
2026-05-04 23:33 64.77673 25.47931 10385 ft 273 kts 187°
2026-05-04 23:33 64.75764 25.47685 11320 ft 284 kts 186°
2026-05-04 23:34 64.73767 25.47429 12128 ft 298 kts 187°
2026-05-04 23:34 64.71671 25.47163 13041 ft 307 kts 186°
2026-05-04 23:34 64.69546 25.46895 14107 ft 311 kts 187°
2026-05-04 23:34 64.67403 25.46623 15218 ft 314 kts 187°
2026-05-04 23:35 64.65231 25.46346 16340 ft 316 kts 187°
2026-05-04 23:35 64.63060 25.46071 17433 ft 319 kts 187°
2026-05-04 23:35 64.60869 25.45793 18518 ft 321 kts 187°
2026-05-04 23:35 64.58630 25.45510 19531 ft 325 kts 188°
2026-05-04 23:36 64.56348 25.45220 20488 ft 330 kts 188°
2026-05-04 23:36 64.54066 25.44931 21366 ft 335 kts 187°
2026-05-04 23:36 64.51747 25.44639 22209 ft 340 kts 187°
2026-05-04 23:36 64.49415 25.44347 23023 ft 344 kts 187°
2026-05-04 23:37 64.47028 25.44047 23787 ft 349 kts 187°
2026-05-04 23:37 64.44606 25.43747 24519 ft 354 kts 186°
2026-05-04 23:37 64.42143 25.43595 25162 ft 360 kts 186°
2026-05-04 23:37 64.39636 25.43458 25749 ft 364 kts 186°
2026-05-04 23:38 64.37109 25.43321 26347 ft 368 kts 186°
2026-05-04 23:38 64.34543 25.43181 26901 ft 372 kts 186°
2026-05-04 23:38 64.31986 25.43041 27425 ft 376 kts 187°
2026-05-04 23:38 64.29372 25.42899 27930 ft 379 kts 186°
2026-05-04 23:39 64.26725 25.42756 28408 ft 383 kts 187°
2026-05-04 23:39 64.24074 25.42612 28884 ft 386 kts 187°
2026-05-04 23:39 64.21384 25.42467 29330 ft 389 kts 187°
2026-05-04 23:39 64.18685 25.42322 29750 ft 393 kts 187°
2026-05-04 23:40 64.15951 25.42173 30161 ft 396 kts 187°
2026-05-04 23:40 64.13213 25.42026 30510 ft 401 kts 187°
2026-05-04 23:40 64.10403 25.41876 30870 ft 404 kts 187°
2026-05-04 23:40 64.07619 25.41726 31192 ft 408 kts 187°
2026-05-04 23:41 64.04782 25.41575 31546 ft 410 kts 187°
2026-05-04 23:41 64.01932 25.41424 31903 ft 412 kts 187°
2026-05-04 23:41 63.99084 25.41272 32284 ft 412 kts 187°
2026-05-04 23:41 63.96252 25.41123 32647 ft 413 kts 187°
2026-05-04 23:42 63.93391 25.40971 32996 ft 413 kts 187°
2026-05-04 23:42 63.90531 25.40819 33399 ft 413 kts 187°
2026-05-04 23:42 63.87661 25.40669 33801 ft 413 kts 187°
2026-05-04 23:42 63.84813 25.40519 34182 ft 413 kts 187°
2026-05-04 23:43 63.81974 25.40373 34581 ft 413 kts 187°
2026-05-04 23:43 63.79097 25.40227 34956 ft 413 kts 186°
2026-05-04 23:43 63.76272 25.40085 35331 ft 412 kts 186°
2026-05-04 23:43 63.73410 25.39942 35640 ft 413 kts 186°
2026-05-04 23:44 63.70570 25.39795 35971 ft 413 kts 186°
2026-05-04 23:44 63.67686 25.39640 36274 ft 413 kts 186°
2026-05-04 23:44 63.64866 25.39493 36472 ft 405 kts 187°
2026-05-04 23:44 63.62033 25.39338 36496 ft 411 kts 186°
2026-05-04 23:45 63.56260 25.39034 36515 ft 426 kts 186°
2026-05-04 23:45 63.50260 25.38725 36527 ft 441 kts 186°
2026-05-04 23:46 63.44172 25.38414 36522 ft 443 kts 186°
2026-05-04 23:46 63.37997 25.38099 36533 ft 444 kts 186°
2026-05-04 23:47 63.31877 25.37787 36524 ft 442 kts 186°
2026-05-04 23:47 63.25742 25.37472 36524 ft 444 kts 186°
2026-05-04 23:48 63.19658 25.37163 36529 ft 441 kts 186°
2026-05-04 23:48 63.13545 25.36851 36536 ft 444 kts 186°
2026-05-04 23:49 63.07419 25.36542 36545 ft 444 kts 186°
2026-05-04 23:49 63.01277 25.36235 36542 ft 442 kts 186°
2026-05-04 23:50 62.95116 25.35925 36547 ft 444 kts 187°
2026-05-04 23:50 62.89014 25.35622 36554 ft 443 kts 187°
2026-05-04 23:51 62.82870 25.35315 36576 ft 445 kts 187°
2026-05-04 23:51 62.76742 25.35010 36565 ft 444 kts 187°
2026-05-04 23:52 62.73723 25.34864 36560 ft 428 kts 187°
2026-05-04 23:52 62.70777 25.34717 36578 ft 419 kts 187°
2026-05-04 23:52 62.64994 25.34424 36529 ft 423 kts 187°
2026-05-04 23:53 62.62014 25.34277 36142 ft 428 kts 188°
2026-05-04 23:53 62.59093 25.34135 35681 ft 425 kts 188°
2026-05-04 23:53 62.56173 25.33991 35217 ft 421 kts 188°
2026-05-04 23:53 62.53245 25.33848 34753 ft 418 kts 189°
2026-05-04 23:54 62.50372 25.33707 34317 ft 419 kts 190°
2026-05-04 23:54 62.47483 25.33566 33844 ft 417 kts 190°
2026-05-04 23:54 62.44577 25.33425 33389 ft 420 kts 191°
2026-05-04 23:54 62.41684 25.33288 32926 ft 417 kts 191°
2026-05-04 23:55 62.38803 25.33150 32459 ft 415 kts 191°
2026-05-04 23:55 62.35952 25.33012 32014 ft 411 kts 191°
2026-05-04 23:55 62.30275 25.32740 31120 ft 411 kts 192°
2026-05-04 23:56 62.27431 25.32606 30630 ft 408 kts 193°
2026-05-04 23:56 62.24606 25.32469 30177 ft 408 kts 192°
2026-05-04 23:56 62.21826 25.32338 29725 ft 403 kts 193°
2026-05-04 23:56 62.19009 25.32203 29277 ft 401 kts 193°
2026-05-04 23:57 62.16251 25.32072 28834 ft 399 kts 193°
2026-05-04 23:57 62.13511 25.31944 28395 ft 393 kts 193°
2026-05-04 23:57 62.10778 25.31813 27961 ft 394 kts 193°
2026-05-04 23:57 62.08078 25.31685 27540 ft 391 kts 193°
2026-05-04 23:58 62.05379 25.31555 27115 ft 390 kts 193°
2026-05-04 23:58 62.02672 25.31426 26687 ft 388 kts 193°
2026-05-04 23:58 62.00017 25.31298 26268 ft 383 kts 193°
2026-05-04 23:58 61.97368 25.31172 25840 ft 380 kts 193°
2026-05-04 23:59 61.94748 25.31048 25421 ft 380 kts 193°
2026-05-04 23:59 61.92117 25.30924 25020 ft 379 kts 193°
2026-05-04 23:59 61.89488 25.30803 24602 ft 377 kts 193°
2026-05-04 23:59 61.86901 25.30681 24192 ft 375 kts 193°
2026-05-05 00:00 61.84331 25.30562 23788 ft 371 kts 193°
2026-05-05 00:00 61.83492 25.30523 23651 ft 369 kts 193°
2026-05-05 00:00 61.79250 25.30326 22976 ft 365 kts 193°
2026-05-05 00:00 61.76726 25.30207 22579 ft 364 kts 193°
2026-05-05 00:01 61.74211 25.30090 22168 ft 362 kts 192°
2026-05-05 00:01 61.71721 25.29976 21769 ft 360 kts 192°
2026-05-05 00:01 61.69248 25.29862 21372 ft 356 kts 192°
2026-05-05 00:01 61.66762 25.29748 20982 ft 353 kts 192°
2026-05-05 00:02 61.64353 25.29636 20593 ft 352 kts 192°
2026-05-05 00:02 61.61890 25.29523 20209 ft 348 kts 191°
2026-05-05 00:02 61.59484 25.29410 19821 ft 348 kts 191°
2026-05-05 00:02 61.57090 25.29298 19446 ft 345 kts 191°
2026-05-05 00:03 61.54714 25.29186 19081 ft 342 kts 191°
2026-05-05 00:03 61.52377 25.29077 18701 ft 339 kts 191°
2026-05-05 00:03 61.50017 25.28966 18321 ft 339 kts 191°
2026-05-05 00:03 61.47684 25.28858 17963 ft 335 kts 191°
2026-05-05 00:04 61.45353 25.28749 17587 ft 334 kts 191°
2026-05-05 00:04 61.43037 25.28640 17222 ft 335 kts 191°
2026-05-05 00:04 61.40755 25.28534 16857 ft 332 kts 191°
2026-05-05 00:04 61.38427 25.28426 16480 ft 331 kts 190°
2026-05-05 00:05 61.36147 25.28321 16122 ft 330 kts 191°
2026-05-05 00:05 61.33868 25.28216 15756 ft 327 kts 190°
2026-05-05 00:05 61.31622 25.28111 15391 ft 327 kts 190°
2026-05-05 00:05 61.29365 25.28007 15047 ft 326 kts 190°
2026-05-05 00:06 61.27125 25.27905 14687 ft 324 kts 190°
2026-05-05 00:06 61.24876 25.27803 14321 ft 322 kts 190°
2026-05-05 00:06 61.22663 25.27702 13972 ft 321 kts 189°
2026-05-05 00:06 61.20416 25.27600 13604 ft 321 kts 189°
2026-05-05 00:07 61.18204 25.27500 13255 ft 321 kts 189°
2026-05-05 00:07 61.15997 25.27401 12902 ft 319 kts 188°
2026-05-05 00:07 61.13776 25.27301 12545 ft 318 kts 188°
2026-05-05 00:07 61.11588 25.27202 12194 ft 317 kts 188°
2026-05-05 00:08 61.09378 25.27103 11848 ft 318 kts 188°
2026-05-05 00:08 61.07194 25.27005 11503 ft 318 kts 187°
2026-05-05 00:08 61.04995 25.26908 11144 ft 313 kts 187°
2026-05-05 00:08 61.02875 25.26814 10807 ft 306 kts 187°
2026-05-05 00:09 61.00774 25.26721 10471 ft 300 kts 187°
2026-05-05 00:09 60.98696 25.26628 10139 ft 294 kts 186°
2026-05-05 00:09 60.96692 25.26540 9829 ft 287 kts 186°
2026-05-05 00:09 60.94707 25.26506 9525 ft 282 kts 183°
2026-05-05 00:10 60.92774 25.26631 9086 ft 282 kts 183°
2026-05-05 00:10 60.90827 25.26757 8593 ft 280 kts 183°
2026-05-05 00:10 60.88892 25.26883 8089 ft 278 kts 183°
2026-05-05 00:10 60.86979 25.27007 7589 ft 276 kts 183°
2026-05-05 00:11 60.85074 25.27131 7094 ft 273 kts 183°
2026-05-05 00:11 60.83215 25.27251 6609 ft 270 kts 183°
2026-05-05 00:11 60.81338 25.27372 6168 ft 267 kts 182°
2026-05-05 00:11 60.79500 25.27490 5856 ft 266 kts 182°
2026-05-05 00:12 60.77639 25.27610 5559 ft 267 kts 182°
2026-05-05 00:12 60.75808 25.27728 5267 ft 267 kts 182°
2026-05-05 00:12 60.73947 25.27848 4969 ft 266 kts 182°
2026-05-05 00:12 60.72125 25.27965 4676 ft 264 kts 182°
2026-05-05 00:13 60.70296 25.28018 4430 ft 258 kts 191°
2026-05-05 00:13 60.68722 25.26623 4336 ft 245 kts 224°
2026-05-05 00:13 60.67545 25.24235 4096 ft 233 kts 229°
2026-05-05 00:13 60.66465 25.21894 3898 ft 220 kts 229°
2026-05-05 00:14 60.65459 25.19684 3659 ft 208 kts 230°
2026-05-05 00:14 60.64513 25.17588 3397 ft 199 kts 230°
2026-05-05 00:14 60.63601 25.15562 3167 ft 190 kts 230°
2026-05-05 00:14 60.62540 25.14103 2936 ft 188 kts 195°
2026-05-05 00:15 60.61271 25.14494 2937 ft 190 kts 165°
2026-05-05 00:15 60.59970 25.15491 2993 ft 206 kts 164°
2026-05-05 00:15 60.58629 25.16581 2982 ft 210 kts 163°
2026-05-05 00:15 60.57275 25.17715 2972 ft 211 kts 162°
2026-05-05 00:16 60.55931 25.18858 2963 ft 211 kts 162°
2026-05-05 00:16 60.54580 25.20016 2964 ft 211 kts 162°
2026-05-05 00:16 60.53227 25.21181 2961 ft 211 kts 162°
2026-05-05 00:16 60.51885 25.22338 2962 ft 212 kts 162°
2026-05-05 00:17 60.50532 25.23505 2963 ft 211 kts 162°
2026-05-05 00:17 60.49166 25.24685 2970 ft 212 kts 162°
2026-05-05 00:17 60.47817 25.25847 2968 ft 211 kts 162°
2026-05-05 00:17 60.46437 25.26223 2953 ft 199 kts 200°
2026-05-05 00:18 60.45320 25.24738 3017 ft 191 kts 224°
2026-05-05 00:18 60.44347 25.22945 3070 ft 190 kts 229°
2026-05-05 00:18 60.43463 25.20960 3118 ft 191 kts 231°
2026-05-05 00:18 60.42569 25.18936 3003 ft 187 kts 230°
2026-05-05 00:19 60.41745 25.17116 2767 ft 166 kts 230°
2026-05-05 00:19 60.41020 25.15510 2568 ft 147 kts 231°
2026-05-05 00:19 60.40364 25.14054 2405 ft 135 kts 231°
2026-05-05 00:19 60.39733 25.12648 2213 ft 136 kts 231°
2026-05-05 00:20 60.39091 25.11224 2022 ft 137 kts 231°
2026-05-05 00:20 60.38454 25.09809 1831 ft 138 kts 231°
2026-05-05 00:20 60.37804 25.08369 1632 ft 136 kts 230°
2026-05-05 00:20 60.37210 25.07057 1437 ft 117 kts 231°
2026-05-05 00:21 60.36687 25.05899 1264 ft 107 kts 230°
2026-05-05 00:21 60.36190 25.04797 1135 ft 108 kts 230°
2026-05-05 00:21 60.35679 25.03667 995 ft 109 kts 229°
2026-05-05 00:21 60.35167 25.02535 848 ft 110 kts 228°
2026-05-05 00:22 60.34647 25.01387 695 ft 111 kts 228°
2026-05-05 00:22 60.34120 25.00223 510 ft 112 kts 227°
2026-05-05 00:22 60.33603 24.99068 367 ft 111 kts 227°
2026-05-05 00:22 60.33075 24.97924 230 ft 112 kts 227°
2026-05-05 00:23 60.32577 24.96836 189 ft 88 kts 226°
2026-05-05 00:23 60.32268 24.96167 189 ft 48 kts 227°
2026-05-05 00:23 60.32080 24.95780 189 ft 34 kts 216°
2026-05-05 00:23 60.31918 24.95629 189 ft 7 kts 199°
2026-05-05 00:24 60.31839 24.95599 189 ft 16 kts 158°
2026-05-05 00:24 60.31826 24.95734 189 ft 11 kts 52°
2026-05-05 00:24 60.31889 24.95875 189 ft 16 kts 48°
2026-05-05 00:24 60.31973 24.96058 189 ft 19 kts 47°
2026-05-05 00:25 60.32076 24.96284 189 ft 21 kts 47°
2026-05-05 00:25 60.32159 24.96469 189 ft 18 kts 48°
2026-05-05 00:25 60.32239 24.96648 189 ft 14 kts 60°
2026-05-05 00:25 60.32194 24.96795 189 ft 14 kts 151°
2026-05-05 00:26 60.32104 24.96895 189 ft 15 kts 150°
2026-05-05 00:26 60.32010 24.97000 189 ft 15 kts 152°
2026-05-05 00:26 60.31932 24.97079 189 ft 4 kts 154°
2026-05-05 00:26 60.31896 24.97089 189 ft 6 kts 204°
2026-05-05 00:27 60.31873 24.97031 189 ft 4 kts 242°
2026-05-05 00:27 60.31869 24.97020 189 ft 0 kts 240°
2026-05-05 00:27 60.31865 24.97004 189 ft 0 kts 242°
2026-05-05 00:27 60.31865 24.97003 189 ft 0 kts 242°